Year,Month,Day,Hour,Minute,Value (Times are PST for temperature in C)
2016,06,12,00,00,11.30
2016,06,12,00,01,11.30
2016,06,12,00,02,11.30
2016,06,12,00,03,11.20
2016,06,12,00,04,11.10
2016,06,12,00,05,11.00
2016,06,12,00,06,10.90
2016,06,12,00,07,10.90
2016,06,12,00,08,10.80
2016,06,12,00,09,10.70
2016,06,12,00,10,10.60
2016,06,12,00,11,10.50
2016,06,12,00,12,10.50
2016,06,12,00,13,10.40
2016,06,12,00,14,10.40
2016,06,12,00,15,10.40
2016,06,12,00,16,10.30
2016,06,12,00,17,10.30
2016,06,12,00,18,10.30
2016,06,12,00,19,10.20
2016,06,12,00,20,10.20
2016,06,12,00,21,10.10
2016,06,12,00,22,10.10
2016,06,12,00,23,10.00
2016,06,12,00,24,10.00
2016,06,12,00,25,9.90
2016,06,12,00,26,9.80
2016,06,12,00,27,9.80
2016,06,12,00,28,9.70
2016,06,12,00,29,9.70
2016,06,12,00,30,9.70
2016,06,12,00,31,9.70
2016,06,12,00,32,9.60
2016,06,12,00,33,9.60
2016,06,12,00,34,9.50
2016,06,12,00,35,9.40
2016,06,12,00,36,9.40
2016,06,12,00,37,9.40
2016,06,12,00,38,9.40
2016,06,12,00,39,9.40
2016,06,12,00,40,9.40
2016,06,12,00,41,9.40
2016,06,12,00,42,9.50
2016,06,12,00,43,9.50
2016,06,12,00,44,9.50
2016,06,12,00,45,9.60
2016,06,12,00,46,9.60
2016,06,12,00,47,9.60
2016,06,12,00,48,9.50
2016,06,12,00,49,9.50
2016,06,12,00,50,9.40
2016,06,12,00,51,9.40
2016,06,12,00,52,9.30
2016,06,12,00,53,9.30
2016,06,12,00,54,9.30
2016,06,12,00,55,9.30
2016,06,12,00,56,9.30
2016,06,12,00,57,9.40
2016,06,12,00,58,9.40
2016,06,12,00,59,9.40
2016,06,12,01,00,9.40
2016,06,12,01,01,9.30
2016,06,12,01,02,9.30
2016,06,12,01,03,9.20
2016,06,12,01,04,9.20
2016,06,12,01,05,9.20
2016,06,12,01,06,9.30
2016,06,12,01,07,9.30
2016,06,12,01,08,9.30
2016,06,12,01,09,9.30
2016,06,12,01,10,9.40
2016,06,12,01,11,9.40
2016,06,12,01,12,9.40
2016,06,12,01,13,9.40
2016,06,12,01,14,9.40
2016,06,12,01,15,9.40
2016,06,12,01,16,9.40
2016,06,12,01,17,9.40
2016,06,12,01,18,9.30
2016,06,12,01,19,9.30
2016,06,12,01,20,9.30
2016,06,12,01,21,9.30
2016,06,12,01,22,9.30
2016,06,12,01,23,9.30
2016,06,12,01,24,9.20
2016,06,12,01,25,9.20
2016,06,12,01,26,9.10
2016,06,12,01,27,9.10
2016,06,12,01,28,9.10
2016,06,12,01,29,9.10
2016,06,12,01,30,9.10
2016,06,12,01,31,9.00
2016,06,12,01,32,9.00
2016,06,12,01,33,9.00
2016,06,12,01,34,9.00
2016,06,12,01,35,9.10
2016,06,12,01,36,9.10
2016,06,12,01,37,9.20
2016,06,12,01,38,9.10
2016,06,12,01,39,9.00
2016,06,12,01,40,8.90
2016,06,12,01,41,8.90
2016,06,12,01,42,8.80
2016,06,12,01,43,8.70
2016,06,12,01,44,8.70
2016,06,12,01,45,8.70
2016,06,12,01,46,8.70
2016,06,12,01,47,8.70
2016,06,12,01,48,8.70
2016,06,12,01,49,8.70
2016,06,12,01,50,8.70
2016,06,12,01,51,8.70
2016,06,12,01,52,8.70
2016,06,12,01,53,8.60
2016,06,12,01,54,8.60
2016,06,12,01,55,8.60
2016,06,12,01,56,8.50
2016,06,12,01,57,8.50
2016,06,12,01,58,8.50
2016,06,12,01,59,8.50
2016,06,12,02,00,8.40
2016,06,12,02,01,8.40
2016,06,12,02,02,8.40
2016,06,12,02,03,8.40
2016,06,12,02,04,8.40
2016,06,12,02,05,8.40
2016,06,12,02,06,8.40
2016,06,12,02,07,8.40
2016,06,12,02,08,8.40
2016,06,12,02,09,8.40
2016,06,12,02,10,8.40
2016,06,12,02,11,8.40
2016,06,12,02,12,8.50
2016,06,12,02,13,8.40
2016,06,12,02,14,8.40
2016,06,12,02,15,8.40
2016,06,12,02,16,8.40
2016,06,12,02,17,8.40
2016,06,12,02,18,8.40
2016,06,12,02,19,8.30
2016,06,12,02,20,8.30
2016,06,12,02,21,8.30
2016,06,12,02,22,8.30
2016,06,12,02,23,8.30
2016,06,12,02,24,8.40
2016,06,12,02,25,8.40
2016,06,12,02,26,8.40
2016,06,12,02,27,8.40
2016,06,12,02,28,8.40
2016,06,12,02,29,8.40
2016,06,12,02,30,8.30
2016,06,12,02,31,8.30
2016,06,12,02,32,8.20
2016,06,12,02,33,8.20
2016,06,12,02,34,8.20
2016,06,12,02,35,8.20
2016,06,12,02,36,8.20
2016,06,12,02,37,8.20
2016,06,12,02,38,8.20
2016,06,12,02,39,8.20
2016,06,12,02,40,8.20
2016,06,12,02,41,8.10
2016,06,12,02,42,8.10
2016,06,12,02,43,8.10
2016,06,12,02,44,8.10
2016,06,12,02,45,8.10
2016,06,12,02,46,8.10
2016,06,12,02,47,8.10
2016,06,12,02,48,8.00
2016,06,12,02,49,8.00
2016,06,12,02,50,7.90
2016,06,12,02,51,7.90
2016,06,12,02,52,7.90
2016,06,12,02,53,7.90
2016,06,12,02,54,7.90
2016,06,12,02,55,7.90
2016,06,12,02,56,7.90
2016,06,12,02,57,7.90
2016,06,12,02,58,7.90
2016,06,12,02,59,7.90
2016,06,12,03,00,7.90
2016,06,12,03,01,7.90
2016,06,12,03,02,7.90
2016,06,12,03,03,7.80
2016,06,12,03,04,7.80
2016,06,12,03,05,7.80
2016,06,12,03,06,7.80
2016,06,12,03,07,7.80
2016,06,12,03,08,7.80
2016,06,12,03,09,7.80
2016,06,12,03,10,7.80
2016,06,12,03,11,7.80
2016,06,12,03,12,7.80
2016,06,12,03,13,7.90
2016,06,12,03,14,7.90
2016,06,12,03,15,7.90
2016,06,12,03,16,7.90
2016,06,12,03,17,7.90
2016,06,12,03,18,7.90
2016,06,12,03,19,7.90
2016,06,12,03,20,7.90
2016,06,12,03,21,7.80
2016,06,12,03,22,7.80
2016,06,12,03,23,7.70
2016,06,12,03,24,7.70
2016,06,12,03,25,7.70
2016,06,12,03,26,7.70
2016,06,12,03,27,7.60
2016,06,12,03,28,7.60
2016,06,12,03,29,7.60
2016,06,12,03,30,7.70
2016,06,12,03,31,7.70
2016,06,12,03,32,7.70
2016,06,12,03,33,7.70
2016,06,12,03,34,7.70
2016,06,12,03,35,7.70
2016,06,12,03,36,7.70
2016,06,12,03,37,7.70
2016,06,12,03,38,7.70
2016,06,12,03,39,7.70
2016,06,12,03,40,7.70
2016,06,12,03,41,7.80
2016,06,12,03,42,7.80
2016,06,12,03,43,7.70
2016,06,12,03,44,7.70
2016,06,12,03,45,7.70
2016,06,12,03,46,7.70
2016,06,12,03,47,7.70
2016,06,12,03,48,7.70
2016,06,12,03,49,7.60
2016,06,12,03,50,7.60
2016,06,12,03,51,7.70
2016,06,12,03,52,7.70
2016,06,12,03,53,7.70
2016,06,12,03,54,7.60
2016,06,12,03,55,7.60
2016,06,12,03,56,7.60
2016,06,12,03,57,7.60
2016,06,12,03,58,7.50
2016,06,12,03,59,7.50
2016,06,12,04,00,7.50
2016,06,12,04,01,7.50
2016,06,12,04,02,7.50
2016,06,12,04,03,7.50
2016,06,12,04,04,7.50
2016,06,12,04,05,7.40
2016,06,12,04,06,7.40
2016,06,12,04,07,7.40
2016,06,12,04,08,7.40
2016,06,12,04,09,7.30
2016,06,12,04,10,7.30
2016,06,12,04,11,7.30
2016,06,12,04,12,7.30
2016,06,12,04,13,7.30
2016,06,12,04,14,7.30
2016,06,12,04,15,7.30
2016,06,12,04,16,7.30
2016,06,12,04,17,7.30
2016,06,12,04,18,7.30
2016,06,12,04,19,7.40
2016,06,12,04,20,7.40
2016,06,12,04,21,7.50
2016,06,12,04,22,7.50
2016,06,12,04,23,7.50
2016,06,12,04,24,7.50
2016,06,12,04,25,7.50
2016,06,12,04,26,7.50
2016,06,12,04,27,7.50
2016,06,12,04,28,7.50
2016,06,12,04,29,7.50
2016,06,12,04,30,7.50
2016,06,12,04,31,7.40
2016,06,12,04,32,7.40
2016,06,12,04,33,7.40
2016,06,12,04,34,7.40
2016,06,12,04,35,7.40
2016,06,12,04,36,7.40
2016,06,12,04,37,7.30
2016,06,12,04,38,7.30
2016,06,12,04,39,7.30
2016,06,12,04,40,7.30
2016,06,12,04,41,7.30
2016,06,12,04,42,7.30
2016,06,12,04,43,7.30
2016,06,12,04,44,7.20
2016,06,12,04,45,7.20
2016,06,12,04,46,7.20
2016,06,12,04,47,7.20
2016,06,12,04,48,7.20
2016,06,12,04,49,7.20
2016,06,12,04,50,7.20
2016,06,12,04,51,7.20
2016,06,12,04,52,7.10
2016,06,12,04,53,7.10
2016,06,12,04,54,7.10
2016,06,12,04,55,7.10
2016,06,12,04,56,7.10
2016,06,12,04,57,7.10
2016,06,12,04,58,7.10
2016,06,12,04,59,7.10
2016,06,12,05,00,7.20
2016,06,12,05,01,7.20
2016,06,12,05,02,7.20
2016,06,12,05,03,7.20
2016,06,12,05,04,7.20
2016,06,12,05,05,7.10
2016,06,12,05,06,7.10
2016,06,12,05,07,7.10
2016,06,12,05,08,7.10
2016,06,12,05,09,7.10
2016,06,12,05,10,7.10
2016,06,12,05,11,7.10
2016,06,12,05,12,7.10
2016,06,12,05,13,7.10
2016,06,12,05,14,7.10
2016,06,12,05,15,7.10
2016,06,12,05,16,7.10
2016,06,12,05,17,7.10
2016,06,12,05,18,7.10
2016,06,12,05,19,7.10
2016,06,12,05,20,7.20
2016,06,12,05,21,7.20
2016,06,12,05,22,7.20
2016,06,12,05,23,7.20
2016,06,12,05,24,7.20
2016,06,12,05,25,7.20
2016,06,12,05,26,7.10
2016,06,12,05,27,7.10
2016,06,12,05,28,7.10
2016,06,12,05,29,7.20
2016,06,12,05,30,7.20
2016,06,12,05,31,7.20
2016,06,12,05,32,7.20
2016,06,12,05,33,7.20
2016,06,12,05,34,7.20
2016,06,12,05,35,7.20
2016,06,12,05,36,7.20
2016,06,12,05,37,7.20
2016,06,12,05,38,7.20
2016,06,12,05,39,7.20
2016,06,12,05,40,7.30
2016,06,12,05,41,7.30
2016,06,12,05,42,7.40
2016,06,12,05,43,7.50
2016,06,12,05,44,7.60
2016,06,12,05,45,7.60
2016,06,12,05,46,7.60
2016,06,12,05,47,7.60
2016,06,12,05,48,7.60
2016,06,12,05,49,7.60
2016,06,12,05,50,7.60
2016,06,12,05,51,7.60
2016,06,12,05,52,7.70
2016,06,12,05,53,7.70
2016,06,12,05,54,7.70
2016,06,12,05,55,7.80
2016,06,12,05,56,7.80
2016,06,12,05,57,7.80
2016,06,12,05,58,7.80
2016,06,12,05,59,7.90
2016,06,12,06,00,7.90
2016,06,12,06,01,8.00
2016,06,12,06,02,8.00
2016,06,12,06,03,8.10
2016,06,12,06,04,8.20
2016,06,12,06,05,8.30
2016,06,12,06,06,8.30
2016,06,12,06,07,8.40
2016,06,12,06,08,8.40
2016,06,12,06,09,8.50
2016,06,12,06,10,8.50
2016,06,12,06,11,8.50
2016,06,12,06,12,8.60
2016,06,12,06,13,8.60
2016,06,12,06,14,8.60
2016,06,12,06,15,8.60
2016,06,12,06,16,8.60
2016,06,12,06,17,8.60
2016,06,12,06,18,8.60
2016,06,12,06,19,8.60
2016,06,12,06,20,8.70
2016,06,12,06,21,8.70
2016,06,12,06,22,8.70
2016,06,12,06,23,8.70
2016,06,12,06,24,8.70
2016,06,12,06,25,8.80
2016,06,12,06,26,8.80
2016,06,12,06,27,8.80
2016,06,12,06,28,8.80
2016,06,12,06,29,8.90
2016,06,12,06,30,8.90
2016,06,12,06,31,8.90
2016,06,12,06,32,8.90
2016,06,12,06,33,9.00
2016,06,12,06,34,9.00
2016,06,12,06,35,9.00
2016,06,12,06,36,9.00
2016,06,12,06,37,9.00
2016,06,12,06,38,9.00
2016,06,12,06,39,9.00
2016,06,12,06,40,9.00
2016,06,12,06,41,8.90
2016,06,12,06,42,8.90
2016,06,12,06,43,8.90
2016,06,12,06,44,8.90
2016,06,12,06,45,8.90
2016,06,12,06,46,8.90
2016,06,12,06,47,8.90
2016,06,12,06,48,8.80
2016,06,12,06,49,8.80
2016,06,12,06,50,8.80
2016,06,12,06,51,8.80
2016,06,12,06,52,8.80
2016,06,12,06,53,8.80
2016,06,12,06,54,8.80
2016,06,12,06,55,8.80
2016,06,12,06,56,8.80
2016,06,12,06,57,8.90
2016,06,12,06,58,8.90
2016,06,12,06,59,8.90
2016,06,12,07,00,8.90
2016,06,12,07,01,8.90
2016,06,12,07,02,8.90
2016,06,12,07,03,8.90
2016,06,12,07,04,9.00
2016,06,12,07,05,9.00
2016,06,12,07,06,9.10
2016,06,12,07,07,9.10
2016,06,12,07,08,9.20
2016,06,12,07,09,9.20
2016,06,12,07,10,9.30
2016,06,12,07,11,9.40
2016,06,12,07,12,9.40
2016,06,12,07,13,9.50
2016,06,12,07,14,9.50
2016,06,12,07,15,9.60
2016,06,12,07,16,9.60
2016,06,12,07,17,9.70
2016,06,12,07,18,9.80
2016,06,12,07,19,9.80
2016,06,12,07,20,9.90
2016,06,12,07,21,10.00
2016,06,12,07,22,10.10
2016,06,12,07,23,10.20
2016,06,12,07,24,10.30
2016,06,12,07,25,10.40
2016,06,12,07,26,10.50
2016,06,12,07,27,10.60
2016,06,12,07,28,10.60
2016,06,12,07,29,10.70
2016,06,12,07,30,10.80
2016,06,12,07,31,10.90
2016,06,12,07,32,11.00
2016,06,12,07,33,11.10
2016,06,12,07,34,11.20
2016,06,12,07,35,11.30
2016,06,12,07,36,11.50
2016,06,12,07,37,11.60
2016,06,12,07,38,11.70
2016,06,12,07,39,11.80
2016,06,12,07,40,11.90
2016,06,12,07,41,11.90
2016,06,12,07,42,12.00
2016,06,12,07,43,12.10
2016,06,12,07,44,12.10
2016,06,12,07,45,12.20
2016,06,12,07,46,12.20
2016,06,12,07,47,12.20
2016,06,12,07,48,12.30
2016,06,12,07,49,12.30
2016,06,12,07,50,12.40
2016,06,12,07,51,12.40
2016,06,12,07,52,12.50
2016,06,12,07,53,12.50
2016,06,12,07,54,12.60
2016,06,12,07,55,12.60
2016,06,12,07,56,12.70
2016,06,12,07,57,12.70
2016,06,12,07,58,12.70
2016,06,12,07,59,12.80
2016,06,12,08,00,12.80
2016,06,12,08,01,12.80
2016,06,12,08,02,12.80
2016,06,12,08,03,12.80
2016,06,12,08,04,12.90
2016,06,12,08,05,12.90
2016,06,12,08,06,12.90
2016,06,12,08,07,12.90
2016,06,12,08,08,12.90
2016,06,12,08,09,13.00
2016,06,12,08,10,13.00
2016,06,12,08,11,13.10
2016,06,12,08,12,13.10
2016,06,12,08,13,13.20
2016,06,12,08,14,13.20
2016,06,12,08,15,13.20
2016,06,12,08,16,13.30
2016,06,12,08,17,13.30
2016,06,12,08,18,13.30
2016,06,12,08,19,13.30
2016,06,12,08,20,13.30
2016,06,12,08,21,13.30
2016,06,12,08,22,13.30
2016,06,12,08,23,13.30
2016,06,12,08,24,13.30
2016,06,12,08,25,13.30
2016,06,12,08,26,13.30
2016,06,12,08,27,13.30
2016,06,12,08,28,13.30
2016,06,12,08,29,13.30
2016,06,12,08,30,13.30
2016,06,12,08,31,13.30
2016,06,12,08,32,13.40
2016,06,12,08,33,13.40
2016,06,12,08,34,13.40
2016,06,12,08,35,13.40
2016,06,12,08,36,13.40
2016,06,12,08,37,13.40
2016,06,12,08,38,13.40
2016,06,12,08,39,13.50
2016,06,12,08,40,13.50
2016,06,12,08,41,13.60
2016,06,12,08,42,13.60
2016,06,12,08,43,13.60
2016,06,12,08,44,13.70
2016,06,12,08,45,13.70
2016,06,12,08,46,13.70
2016,06,12,08,47,13.80
2016,06,12,08,48,13.80
2016,06,12,08,49,13.80
2016,06,12,08,50,13.80
2016,06,12,08,51,13.80
2016,06,12,08,52,13.80
2016,06,12,08,53,13.80
2016,06,12,08,54,13.80
2016,06,12,08,55,13.80
2016,06,12,08,56,13.80
2016,06,12,08,57,13.80
2016,06,12,08,58,13.70
2016,06,12,08,59,13.70
2016,06,12,09,00,13.70
2016,06,12,09,01,13.70
2016,06,12,09,02,13.70
2016,06,12,09,03,13.70
2016,06,12,09,04,13.70
2016,06,12,09,05,13.70
2016,06,12,09,06,13.70
2016,06,12,09,07,13.70
2016,06,12,09,08,13.70
2016,06,12,09,09,13.70
2016,06,12,09,10,13.70
2016,06,12,09,11,13.70
2016,06,12,09,12,13.70
2016,06,12,09,13,13.70
2016,06,12,09,14,13.80
2016,06,12,09,15,13.80
2016,06,12,09,16,13.80
2016,06,12,09,17,13.80
2016,06,12,09,18,13.80
2016,06,12,09,19,13.90
2016,06,12,09,20,13.90
2016,06,12,09,21,13.90
2016,06,12,09,22,13.90
2016,06,12,09,23,13.90
2016,06,12,09,24,14.00
2016,06,12,09,25,14.00
2016,06,12,09,26,14.00
2016,06,12,09,27,14.00
2016,06,12,09,28,14.00
2016,06,12,09,29,14.10
2016,06,12,09,30,14.10
2016,06,12,09,31,14.10
2016,06,12,09,32,14.10
2016,06,12,09,33,14.10
2016,06,12,09,34,14.00
2016,06,12,09,35,14.00
2016,06,12,09,36,14.00
2016,06,12,09,37,14.00
2016,06,12,09,38,14.00
2016,06,12,09,39,14.00
2016,06,12,09,40,13.90
2016,06,12,09,41,13.90
2016,06,12,09,42,13.90
2016,06,12,09,43,13.90
2016,06,12,09,44,13.90
2016,06,12,09,45,13.90
2016,06,12,09,46,13.90
2016,06,12,09,47,13.90
2016,06,12,09,48,14.00
2016,06,12,09,49,14.00
2016,06,12,09,50,14.10
2016,06,12,09,51,14.10
2016,06,12,09,52,14.10
2016,06,12,09,53,14.10
2016,06,12,09,54,14.20
2016,06,12,09,55,14.20
2016,06,12,09,56,14.20
2016,06,12,09,57,14.20
2016,06,12,09,58,14.10
2016,06,12,09,59,14.10
2016,06,12,10,00,14.10
2016,06,12,10,01,14.10
2016,06,12,10,02,14.10
2016,06,12,10,03,14.10
2016,06,12,10,04,14.10
2016,06,12,10,05,14.10
2016,06,12,10,06,14.10
2016,06,12,10,07,14.10
2016,06,12,10,08,14.10
2016,06,12,10,09,14.10
2016,06,12,10,10,14.10
2016,06,12,10,11,14.20
2016,06,12,10,12,14.20
2016,06,12,10,13,14.20
2016,06,12,10,14,14.20
2016,06,12,10,15,14.30
2016,06,12,10,16,14.30
2016,06,12,10,17,14.30
2016,06,12,10,18,14.30
2016,06,12,10,19,14.30
2016,06,12,10,20,14.30
2016,06,12,10,21,14.30
2016,06,12,10,22,14.30
2016,06,12,10,23,14.30
2016,06,12,10,24,14.40
2016,06,12,10,25,14.50
2016,06,12,10,26,14.50
2016,06,12,10,27,14.60
2016,06,12,10,28,14.80
2016,06,12,10,29,14.90
2016,06,12,10,30,15.00
2016,06,12,10,31,15.00
2016,06,12,10,32,15.10
2016,06,12,10,33,15.20
2016,06,12,10,34,15.20
2016,06,12,10,35,15.20
2016,06,12,10,36,15.20
2016,06,12,10,37,15.20
2016,06,12,10,38,15.20
2016,06,12,10,39,15.20
2016,06,12,10,40,15.20
2016,06,12,10,41,15.10
2016,06,12,10,42,15.00
2016,06,12,10,43,14.90
2016,06,12,10,44,14.80
2016,06,12,10,45,14.80
2016,06,12,10,46,14.80
2016,06,12,10,47,14.80
2016,06,12,10,48,14.80
2016,06,12,10,49,14.80
2016,06,12,10,50,14.80
2016,06,12,10,51,14.80
2016,06,12,10,52,14.80
2016,06,12,10,53,14.80
2016,06,12,10,54,14.80
2016,06,12,10,55,14.80
2016,06,12,10,56,14.80
2016,06,12,10,57,14.80
2016,06,12,10,58,14.70
2016,06,12,10,59,14.70
2016,06,12,11,00,14.70
2016,06,12,11,01,14.70
2016,06,12,11,02,14.60
2016,06,12,11,03,14.60
2016,06,12,11,04,14.60
2016,06,12,11,05,14.60
2016,06,12,11,06,14.60
2016,06,12,11,07,14.70
2016,06,12,11,08,14.70
2016,06,12,11,09,14.80
2016,06,12,11,10,14.80
2016,06,12,11,11,14.80
2016,06,12,11,12,14.90
2016,06,12,11,13,14.90
2016,06,12,11,14,15.00
2016,06,12,11,15,15.00
2016,06,12,11,16,15.10
2016,06,12,11,17,15.20
2016,06,12,11,18,15.20
2016,06,12,11,19,15.30
2016,06,12,11,20,15.40
2016,06,12,11,21,15.50
2016,06,12,11,22,15.50
2016,06,12,11,23,15.50
2016,06,12,11,24,15.50
2016,06,12,11,25,15.60
2016,06,12,11,26,15.60
2016,06,12,11,27,15.60
2016,06,12,11,28,15.70
2016,06,12,11,29,15.70
2016,06,12,11,30,15.80
2016,06,12,11,31,15.80
2016,06,12,11,32,15.80
2016,06,12,11,33,15.80
2016,06,12,11,34,15.80
2016,06,12,11,35,15.80
2016,06,12,11,36,15.80
2016,06,12,11,37,15.80
2016,06,12,11,38,15.70
2016,06,12,11,39,15.70
2016,06,12,11,40,15.60
2016,06,12,11,41,15.60
2016,06,12,11,42,15.60
2016,06,12,11,43,15.70
2016,06,12,11,44,15.70
2016,06,12,11,45,15.80
2016,06,12,11,46,15.80
2016,06,12,11,47,15.80
2016,06,12,11,48,15.90
2016,06,12,11,49,15.90
2016,06,12,11,50,16.00
2016,06,12,11,51,16.00
2016,06,12,11,52,16.10
2016,06,12,11,53,16.10
2016,06,12,11,54,16.20
2016,06,12,11,55,16.20
2016,06,12,11,56,16.20
2016,06,12,11,57,16.20
2016,06,12,11,58,16.20
2016,06,12,11,59,16.20
2016,06,12,12,00,16.20
2016,06,12,12,01,16.10
2016,06,12,12,02,16.00
2016,06,12,12,03,15.90
2016,06,12,12,04,15.90
2016,06,12,12,05,15.80
2016,06,12,12,06,15.80
2016,06,12,12,07,15.80
2016,06,12,12,08,15.70
2016,06,12,12,09,15.70
2016,06,12,12,10,15.70
2016,06,12,12,11,15.80
2016,06,12,12,12,15.80
2016,06,12,12,13,15.80
2016,06,12,12,14,15.80
2016,06,12,12,15,15.80
2016,06,12,12,16,15.90
2016,06,12,12,17,15.90
2016,06,12,12,18,16.10
2016,06,12,12,19,16.30
2016,06,12,12,20,16.40
2016,06,12,12,21,16.50
2016,06,12,12,22,16.60
2016,06,12,12,23,16.60
2016,06,12,12,24,16.60
2016,06,12,12,25,16.60
2016,06,12,12,26,16.70
2016,06,12,12,27,16.70
2016,06,12,12,28,16.70
2016,06,12,12,29,16.70
2016,06,12,12,30,16.70
2016,06,12,12,31,16.70
2016,06,12,12,32,16.80
2016,06,12,12,33,16.90
2016,06,12,12,34,17.00
2016,06,12,12,35,17.10
2016,06,12,12,36,17.20
2016,06,12,12,37,17.20
2016,06,12,12,38,17.20
2016,06,12,12,39,17.30
2016,06,12,12,40,17.30
2016,06,12,12,41,17.30
2016,06,12,12,42,17.20
2016,06,12,12,43,17.20
2016,06,12,12,44,17.10
2016,06,12,12,45,17.00
2016,06,12,12,46,16.90
2016,06,12,12,47,16.90
2016,06,12,12,48,16.80
2016,06,12,12,49,16.80
2016,06,12,12,50,16.80
2016,06,12,12,51,16.70
2016,06,12,12,52,16.70
2016,06,12,12,53,16.60
2016,06,12,12,54,16.60
2016,06,12,12,55,16.70
2016,06,12,12,56,16.80
2016,06,12,12,57,16.80
2016,06,12,12,58,16.80
2016,06,12,12,59,16.80
2016,06,12,13,00,16.80
2016,06,12,13,01,16.80
2016,06,12,13,02,16.80
2016,06,12,13,03,16.90
2016,06,12,13,04,16.90
2016,06,12,13,05,17.00
2016,06,12,13,06,17.10
2016,06,12,13,07,17.20
2016,06,12,13,08,17.30
2016,06,12,13,09,17.40
2016,06,12,13,10,17.40
2016,06,12,13,11,17.50
2016,06,12,13,12,17.60
2016,06,12,13,13,17.60
2016,06,12,13,14,17.70
2016,06,12,13,15,17.70
2016,06,12,13,16,17.60
2016,06,12,13,17,17.50
2016,06,12,13,18,17.50
2016,06,12,13,19,17.40
2016,06,12,13,20,17.30
2016,06,12,13,21,17.30
2016,06,12,13,22,17.20
2016,06,12,13,23,17.20
2016,06,12,13,24,17.20
2016,06,12,13,25,17.10
2016,06,12,13,26,17.00
2016,06,12,13,27,17.00
2016,06,12,13,28,17.00
2016,06,12,13,29,17.00
2016,06,12,13,30,17.00
2016,06,12,13,31,17.10
2016,06,12,13,32,17.10
2016,06,12,13,33,17.10
2016,06,12,13,34,17.20
2016,06,12,13,35,17.30
2016,06,12,13,36,17.30
2016,06,12,13,37,17.30
2016,06,12,13,38,17.40
2016,06,12,13,39,17.50
2016,06,12,13,40,17.60
2016,06,12,13,41,17.70
2016,06,12,13,42,17.70
2016,06,12,13,43,17.80
2016,06,12,13,44,17.70
2016,06,12,13,45,17.60
2016,06,12,13,46,17.60
2016,06,12,13,47,17.50
2016,06,12,13,48,17.50
2016,06,12,13,49,17.50
2016,06,12,13,50,17.50
2016,06,12,13,51,17.70
2016,06,12,13,52,17.80
2016,06,12,13,53,17.90
2016,06,12,13,54,18.00
2016,06,12,13,55,18.20
2016,06,12,13,56,18.30
2016,06,12,13,57,18.40
2016,06,12,13,58,18.50
2016,06,12,13,59,18.60
2016,06,12,14,00,18.60
2016,06,12,14,01,18.60
2016,06,12,14,02,18.70
2016,06,12,14,03,18.80
2016,06,12,14,04,19.00
2016,06,12,14,05,19.20
2016,06,12,14,06,19.30
2016,06,12,14,07,19.30
2016,06,12,14,08,19.30
2016,06,12,14,09,19.30
2016,06,12,14,10,19.30
2016,06,12,14,11,19.30
2016,06,12,14,12,19.30
2016,06,12,14,13,19.30
2016,06,12,14,14,19.30
2016,06,12,14,15,19.30
2016,06,12,14,16,19.40
2016,06,12,14,17,19.40
2016,06,12,14,18,19.50
2016,06,12,14,19,19.50
2016,06,12,14,20,19.50
2016,06,12,14,21,19.50
2016,06,12,14,22,19.40
2016,06,12,14,23,19.40
2016,06,12,14,24,19.40
2016,06,12,14,25,19.40
2016,06,12,14,26,19.50
2016,06,12,14,27,19.60
2016,06,12,14,28,19.60
2016,06,12,14,29,19.60
2016,06,12,14,30,19.60
2016,06,12,14,31,19.60
2016,06,12,14,32,19.60
2016,06,12,14,33,19.50
2016,06,12,14,34,19.40
2016,06,12,14,35,19.40
2016,06,12,14,36,19.30
2016,06,12,14,37,19.30
2016,06,12,14,38,19.30
2016,06,12,14,39,19.30
2016,06,12,14,40,19.20
2016,06,12,14,41,19.10
2016,06,12,14,42,19.10
2016,06,12,14,43,19.20
2016,06,12,14,44,19.20
2016,06,12,14,45,19.10
2016,06,12,14,46,19.10
2016,06,12,14,47,19.10
2016,06,12,14,48,19.20
2016,06,12,14,49,19.20
2016,06,12,14,50,19.30
2016,06,12,14,51,19.40
2016,06,12,14,52,19.50
2016,06,12,14,53,19.60
2016,06,12,14,54,19.70
2016,06,12,14,55,19.90
2016,06,12,14,56,20.00
2016,06,12,14,57,20.10
2016,06,12,14,58,20.20
2016,06,12,14,59,20.30
2016,06,12,15,00,20.40
2016,06,12,15,01,20.60
2016,06,12,15,02,20.60
2016,06,12,15,03,20.70
2016,06,12,15,04,20.80
2016,06,12,15,05,21.00
2016,06,12,15,06,21.10
2016,06,12,15,07,21.10
2016,06,12,15,08,20.80
2016,06,12,15,09,20.60
2016,06,12,15,10,20.40
2016,06,12,15,11,20.30
2016,06,12,15,12,20.30
2016,06,12,15,13,20.30
2016,06,12,15,14,20.20
2016,06,12,15,15,20.20
2016,06,12,15,16,20.10
2016,06,12,15,17,20.10
2016,06,12,15,18,20.10
2016,06,12,15,19,20.10
2016,06,12,15,20,20.00
2016,06,12,15,21,19.90
2016,06,12,15,22,19.80
2016,06,12,15,23,19.80
2016,06,12,15,24,19.70
2016,06,12,15,25,19.70
2016,06,12,15,26,19.70
2016,06,12,15,27,19.70
2016,06,12,15,28,19.80
2016,06,12,15,29,19.90
2016,06,12,15,30,19.90
2016,06,12,15,31,19.80
2016,06,12,15,32,19.70
2016,06,12,15,33,19.70
2016,06,12,15,34,19.80
2016,06,12,15,35,19.80
2016,06,12,15,36,19.80
2016,06,12,15,37,19.90
2016,06,12,15,38,19.90
2016,06,12,15,39,19.90
2016,06,12,15,40,19.90
2016,06,12,15,41,19.80
2016,06,12,15,42,19.90
2016,06,12,15,43,19.90
2016,06,12,15,44,19.90
2016,06,12,15,45,19.90
2016,06,12,15,46,19.90
2016,06,12,15,47,20.00
2016,06,12,15,48,20.10
2016,06,12,15,49,20.20
2016,06,12,15,50,20.30
2016,06,12,15,51,20.40
2016,06,12,15,52,20.30
2016,06,12,15,53,20.10
2016,06,12,15,54,19.90
2016,06,12,15,55,19.70
2016,06,12,15,56,19.50
2016,06,12,15,57,19.30
2016,06,12,15,58,19.20
2016,06,12,15,59,19.20
2016,06,12,16,00,19.20
2016,06,12,16,01,19.20
2016,06,12,16,02,19.20
2016,06,12,16,03,19.20
2016,06,12,16,04,19.10
2016,06,12,16,05,19.00
2016,06,12,16,06,18.90
2016,06,12,16,07,18.90
2016,06,12,16,08,18.80
2016,06,12,16,09,18.70
2016,06,12,16,10,18.60
2016,06,12,16,11,18.50
2016,06,12,16,12,18.50
2016,06,12,16,13,18.60
2016,06,12,16,14,18.60
2016,06,12,16,15,18.60
2016,06,12,16,16,18.60
2016,06,12,16,17,18.60
2016,06,12,16,18,18.60
2016,06,12,16,19,18.70
2016,06,12,16,20,18.70
2016,06,12,16,21,18.80
2016,06,12,16,22,18.90
2016,06,12,16,23,19.00
2016,06,12,16,24,19.20
2016,06,12,16,25,19.30
2016,06,12,16,26,19.40
2016,06,12,16,27,19.50
2016,06,12,16,28,19.60
2016,06,12,16,29,19.70
2016,06,12,16,30,19.80
2016,06,12,16,31,19.90
2016,06,12,16,32,19.90
2016,06,12,16,33,19.80
2016,06,12,16,34,19.80
2016,06,12,16,35,19.70
2016,06,12,16,36,19.60
2016,06,12,16,37,19.50
2016,06,12,16,38,19.50
2016,06,12,16,39,19.40
2016,06,12,16,40,19.40
2016,06,12,16,41,19.40
2016,06,12,16,42,19.40
2016,06,12,16,43,19.40
2016,06,12,16,44,19.40
2016,06,12,16,45,19.40
2016,06,12,16,46,19.50
2016,06,12,16,47,19.50
2016,06,12,16,48,19.60
2016,06,12,16,49,19.60
2016,06,12,16,50,19.60
2016,06,12,16,51,19.60
2016,06,12,16,52,19.50
2016,06,12,16,53,19.40
2016,06,12,16,54,19.30
2016,06,12,16,55,19.20
2016,06,12,16,56,19.10
2016,06,12,16,57,19.00
2016,06,12,16,58,19.00
2016,06,12,16,59,18.90
2016,06,12,17,00,18.90
2016,06,12,17,01,18.90
2016,06,12,17,02,18.90
2016,06,12,17,03,19.00
2016,06,12,17,04,19.10
2016,06,12,17,05,19.30
2016,06,12,17,06,19.50
2016,06,12,17,07,19.60
2016,06,12,17,08,19.70
2016,06,12,17,09,19.70
2016,06,12,17,10,19.80
2016,06,12,17,11,19.70
2016,06,12,17,12,19.70
2016,06,12,17,13,19.70
2016,06,12,17,14,19.70
2016,06,12,17,15,19.70
2016,06,12,17,16,19.60
2016,06,12,17,17,19.60
2016,06,12,17,18,19.50
2016,06,12,17,19,19.50
2016,06,12,17,20,19.50
2016,06,12,17,21,19.60
2016,06,12,17,22,19.70
2016,06,12,17,23,19.70
2016,06,12,17,24,19.70
2016,06,12,17,25,19.80
2016,06,12,17,26,19.80
2016,06,12,17,27,19.90
2016,06,12,17,28,20.00
2016,06,12,17,29,20.10
2016,06,12,17,30,20.00
2016,06,12,17,31,19.90
2016,06,12,17,32,19.80
2016,06,12,17,33,19.70
2016,06,12,17,34,19.70
2016,06,12,17,35,19.70
2016,06,12,17,36,19.70
2016,06,12,17,37,19.70